FW7903 Weather Reports


time (UTC)temp
C
wind
direction
speed
KPH
gust
KPH
rain 1hr
cm
rain 24hr
cm
rain mn
cm
humidity
%
barometer
mb
20260508020033 6 303 1.6 6.4 0.00 0.41 0.05 57 1007.4
20260508014531 7 0 1.6 9.7 0.00 0.41 0.05 58 1007.4
20260508013037 7 5 3.2 8.0 0.00 0.41 0.05 54 1007.2
20260508011540 8 348 1.6 11.3 0.00 0.41 0.05 52 1007.1
20260508010046 8 320 3.2 19.3 0.00 0.41 0.05 52 1006.9
20260508004555 8 345 1.6 19.3 0.00 0.41 0.05 50 1006.8
20260508003033 9 329 3.2 11.3 0.00 0.41 0.05 51 1006.6
20260508001532 10 5 4.8 16.1 0.00 0.41 0.05 47 1006.4
20260508000036 10 50 4.8 12.9 0.00 0.41 0.05 46 1006.1
20260507234534 10 49 1.6 20.9 0.00 0.41 0.05 46 1006.0
20260507233038 11 293 4.8 14.5 0.00 0.41 0.05 45 1005.8
20260507231531 11 314 6.4 19.3 0.00 0.41 0.05 45 1005.6
20260507230053 12 5 9.7 22.5 0.00 0.41 0.05 40 1005.5
20260507224536 13 343 9.7 24.1 0.00 0.48 0.05 41 1005.3
20260507223106 13 275 9.7 20.9 0.00 0.48 0.05 39 1005.1
20260507221537 13 325 9.7 22.5 0.00 0.48 0.05 42 1005.0
20260507220035 13 281 6.4 19.3 0.00 0.48 0.05 42 1004.9
20260507214536 13 242 6.4 20.9 0.00 0.79 0.05 42 1004.8
20260507213034 15 246 11.3 24.1 0.00 0.79 0.05 40 1004.8
20260507211533 15 238 12.9 22.5 0.00 0.79 0.05 41 1004.6
20260507210040 15 284 12.9 27.4 0.00 0.79 0.05 37 1004.5
20260507204540 15 263 14.5 35.4 0.00 1.09 0.05 36 1004.3
20260507203037 15 302 17.7 33.8 0.00 1.09 0.05 39 1004.2
20260507201531 15 277 14.5 35.4 0.00 1.09 0.05 37 1004.2
20260507200049 16 0 12.9 29.0 0.00 1.09 0.05 38 1004.1
20260507194536 15 249 17.7 33.8 0.00 1.19 0.05 40 1004.3
20260507193043 15 259 16.1 30.6 0.00 1.19 0.05 41 1004.4
20260507191534 15 290 9.7 25.7 0.00 1.19 0.05 46 1004.5
20260507190036 15 265 16.1 27.4 0.00 1.19 0.05 45 1004.6
20260507184536 13 267 8.0 14.5 0.00 1.63 0.05 45 1004.7
20260507183040 14 239 9.7 25.7 0.00 1.63 0.05 46 1004.8
20260507181535 15 269 12.9 37.0 0.00 1.63 0.05 43 1004.7
20260507180032 15 268 12.9 25.7 0.00 1.63 0.05 40 1004.8
20260507174537 14 267 20.9 38.6 0.00 1.70 0.05 46 1005.0
20260507173031 15 178 16.1 32.2 0.00 1.70 0.05 61 1005.0
20260507171539 15 271 16.1 37.0 0.00 1.70 0.05 56 1005.0
20260507170043 15 262 14.5 32.2 0.00 1.70 0.05 58 1005.0
20260507164534 15 271 16.1 25.7 0.00 1.70 0.05 54 1005.2
20260507163032 15 297 12.9 27.4 0.00 1.70 0.05 60 1005.4
20260507161532 13 259 9.7 20.9 0.00 1.70 0.05 61 1005.3
20260507160040 15 307 14.5 24.1 0.00 1.70 0.05 58 1005.5
20260507154532 13 286 4.8 17.7 0.00 1.70 0.05 63 1005.6
20260507153037 13 230 9.7 27.4 0.00 1.70 0.05 65 1005.9
20260507151536 13 272 9.7 19.3 0.00 1.70 0.05 62 1005.9
20260507150035 13 206 8.0 17.7 0.00 1.70 0.05 64 1006.0
20260507144532 13 268 3.2 14.5 0.00 1.70 0.05 65 1006.0
20260507143033 13 298 6.4 16.1 0.00 1.70 0.05 62 1006.1
20260507141531 12 300 4.8 17.7 0.00 1.70 0.05 71 1006.2
20260507140035 12 264 3.2 19.3 0.00 1.70 0.05 72 1006.5
20260507134534 12 271 9.7 19.3 0.00 1.70 0.05 72 1006.6
20260507133035 11 296 6.4 22.5 0.00 1.70 0.05 72 1006.8
20260507131533 11 339 3.2 16.1 0.00 1.70 0.05 77 1006.6
20260507130053 11 293 4.8 14.5 0.00 1.70 0.05 78 1006.8
20260507124536 11 277 4.8 12.9 0.00 1.70 0.05 78 1006.8
20260507123040 10 341 1.6 14.5 0.00 1.70 0.05 78 1006.8
20260507121538 9 298 3.2 14.5 0.00 1.70 0.05 79 1006.9
20260507120037 9 343 6.4 17.7 0.00 1.70 0.05 82 1007.0
20260507114537 8 281 1.6 12.9 0.00 1.70 0.05 85 1006.7
20260507113033 7 320 1.6 11.3 0.00 1.70 0.05 91 1006.9
20260507111533 7 321 1.6 4.8 0.00 1.70 0.05 95 1007.1
20260507110036 6 61 1.6 3.2 0.00 1.70 0.05 95 1007.0
20260507104535 5 0 0.0 3.2 0.00 1.70 0.05 95 1007.4
20260507103033 5 0 1.6 4.8 0.00 1.70 0.05 95 1007.2
20260507101540 5 0 0.0 3.2 0.00 1.70 0.05 95 1006.9
20260507100046 5 340 0.0 4.8 0.00 1.70 0.05 95 1007.0
20260507094537 5 0 0.0 3.2 0.00 1.70 0.05 94 1006.8
20260507093036 6 348 0.0 3.2 0.00 1.70 0.05 94 1006.5
20260507091557 6 0 0.0 3.2 0.00 1.70 0.05 94 1006.5
20260507090034 6 0 1.6 8.0 0.00 1.70 0.05 94 1006.6
20260507084537 6 0 0.0 3.2 0.00 1.70 0.05 94 1006.6
20260507083048 6 305 1.6 4.8 0.00 1.70 0.05 93 1006.7
20260507081531 6 344 0.0 4.8 0.00 1.70 0.05 92 1006.7
20260507080036 6 334 1.6 6.4 0.00 1.70 0.05 92 1006.2
20260507074534 6 24 1.6 8.0 0.00 1.70 0.05 93 1006.2
20260507073035 6 11 1.6 11.3 0.00 1.70 0.05 92 1006.2
20260507071536 7 332 3.2 12.9 0.00 1.70 0.05 92 1006.0
20260507070038 7 24 3.2 16.1 0.00 1.70 0.05 93 1006.0
20260507064537 7 62 1.6 9.7 0.00 1.70 0.05 94 1005.8
20260507063037 7 282 1.6 12.9 0.00 1.70 0.05 94 1005.6
20260507061535 7 0 1.6 9.7 0.00 1.70 0.05 94 1005.6
20260507060035 7 62 4.8 22.5 0.00 1.70 0.05 95 1005.4
20260507054539 7 28 3.2 12.9 0.00 1.70 0.05 95 1005.4
20260507053032 7 346 3.2 12.9 0.00 1.70 0.05 95 1005.2
20260507051537 7 36 3.2 11.3 0.03 1.70 0.05 95 1004.9
20260507050039 7 326 3.2 16.1 0.05 1.70 0.05 95 1005.1
20260507044539 8 35 4.8 19.3 0.13 1.70 0.05 95 1005.4
20260507043032 8 352 6.4 22.5 0.15 1.70 0.05 95 1005.2
20260507041542 8 5 6.4 19.3 0.15 1.68 0.03 95 1005.3
20260507040036 8 5 9.7 27.4 0.18 1.65 0.00 95 1005.2
20260507034537 9 343 3.2 24.1 0.15 1.57 1.57 96 1005.3
20260507033036 10 342 4.8 19.3 0.15 1.55 1.55 96 1004.9
20260507031532 10 347 6.4 24.1 0.23 1.52 1.52 97 1004.8
20260507030032 11 352 6.4 20.9 0.18 1.47 1.47 97 1004.6
20260507024532 11 54 3.2 11.3 0.13 1.42 1.42 97 1004.5
20260507023034 12 13 3.2 12.9 0.10 1.40 1.40 97 1004.5
20260507021536 13 286 0.0 3.2 0.00 1.30 1.30 98 1004.2